Wind_Speed
16 17 16 16 16 15 17 17 16 15 14 14 13 12 10 9 8 7 6 6 7 7 7 7 6 6 6 6 6 7 7 7 6 7 7 8 9 9 10 10 10 9 9 9 9 8 8 8 8
17 17 17 18 17 16 17 18 17 16 14 14 14 13 12 10 9 8 7 7 7 7 7 7 7 7 7 7 7 7 7 7 7 7 7 8 8 9 9 10 10 9 9 8 8 8 8 8 8
17 18 18 18 18 17 17 17 17 17 15 14 14 14 13 12 11 10 9 8 8 8 8 8 7 7 7 8 8 8 7 7 7 7 7 8 8 9 9 10 9 9 8 8 8 7 8 8 8
16 16 18 19 19 19 18 17 17 17 16 14 15 14 13 13 13 12 11 10 10 10 9 8 8 9 9 9 9 8 7 7 7 8 8 8 9 9 9 9 9 9 8 8 7 7 7 8 8
16 17 18 19 20 20 19 18 17 17 16 15 15 14 13 13 14 13 13 12 12 11 11 9 10 10 10 10 9 8 8 8 8 8 8 9 9 9 9 9 8 7 7 7 7 7 7 8 8
17 19 20 20 21 20 19 19 18 17 16 16 15 15 14 14 14 13 13 14 13 12 11 11 10 10 10 9 8 7 8 7 8 8 8 8 9 9 9 8 8 7 6 6 7 6 7 7 7
16 20 20 20 20 18 18 18 17 17 16 16 15 15 15 15 14 14 13 13 13 12 12 12 12 11 11 10 8 7 7 7 7 8 8 9 8 8 8 9 8 7 6 6 6 7 7 7 6
16 18 19 18 18 18 18 18 17 17 16 16 16 15 15 15 14 14 13 13 12 12 12 13 12 12 11 10 8 7 7 8 8 8 8 9 8 8 8 8 7 7 6 6 5 5 5 5 4
16 17 17 17 17 17 18 18 18 17 16 16 16 15 15 14 14 13 14 13 12 12 12 12 12 12 11 11 10 10 9 9 9 9 9 9 8 8 8 7 6 5 5 5 4 4 4 3 3
15 16 15 16 16 17 18 18 19 18 16 16 16 15 14 14 14 14 14 13 12 12 12 12 12 11 12 11 11 11 11 11 10 10 10 9 8 8 7 6 6 5 4 4 4 3 3 3 2
13 14 14 15 16 17 17 18 18 18 17 16 16 16 14 14 14 14 13 13 12 12 12 12 12 11 11 11 11 12 11 11 11 11 10 9 9 8 7 6 6 5 5 4 4 3 3 2 2
12 12 13 15 16 16 17 17 18 17 17 17 16 16 15 15 15 14 14 13 12 12 12 12 12 11 11 11 11 11 11 10 10 10 9 8 8 8 7 6 5 5 5 4 3 2 2 2 1
10 11 12 14 14 16 17 17 17 17 17 17 16 15 16 16 15 14 13 14 13 12 12 12 12 11 11 10 10 11 11 10 10 9 8 8 7 7 6 6 5 5 4 4 3 2 1 1 0
9 9 12 13 14 15 16 16 16 17 16 16 15 15 15 15 15 14 13 13 13 13 12 11 11 11 10 10 10 10 9 9 8 8 7 7 6 6 6 5 5 5 4 4 4 3 2 1 1
7 8 10 12 13 14 14 14 15 16 15 15 15 14 15 14 14 14 13 13 13 12 11 11 10 10 10 9 9 9 9 8 8 7 6 6 6 6 6 5 5 5 5 4 3 3 3 2 1
5 7 8 10 11 12 12 13 13 14 14 14 14 14 14 14 14 13 13 13 12 12 11 11 9 10 10 9 8 8 8 7 7 7 6 6 6 6 6 5 5 4 4 3 2 2 2 2 2
5 6 6 7 9 9 10 11 12 13 13 13 13 13 13 13 13 13 12 12 12 12 12 11 10 10 10 9 8 7 7 6 6 6 6 6 6 6 6 6 5 5 4 4 3 3 3 3 3
5 4 4 5 6 7 8 9 10 10 12 13 13 13 12 12 12 12 12 11 11 11 11 11 11 11 10 9 8 7 7 7 7 7 6 7 6 6 6 5 6 5 5 5 5 4 4 4 4
5 2 2 3 4 5 6 7 8 8 9 10 11 12 12 11 11 11 11 11 11 10 10 9 10 10 10 10 9 8 8 7 7 7 7 6 6 6 6 6 6 6 6 6 5 5 5 5 5
5 3 1 1 2 4 6 6 6 7 8 9 10 11 11 11 10 10 10 10 10 10 9 9 9 9 9 10 9 8 8 8 8 7 7 6 6 6 6 6 6 6 7 7 6 6 5 5 5
6 4 2 3 2 3 4 5 6 6 6 7 8 9 10 10 9 9 8 9 9 9 8 8 8 8 8 9 9 9 8 8 8 8 7 7 7 7 7 6 6 6 7 7 6 6 5 5 5
7 6 5 5 6 6 6 7 5 6 5 6 7 7 8 8 8 8 7 7 8 8 7 7 7 7 7 7 8 8 8 8 8 8 7 7 7 7 7 6 6 6 6 6 6 6 6 6 6
9 9 9 8 8 8 7 8 5 5 5 5 5 5 6 6 7 7 7 7 7 7 7 7 7 6 7 7 7 7 7 8 8 7 7 7 7 6 6 6 6 6 6 6 6 7 7 7 7
14 14 13 12 11 11 8 8 5 4 5 4 5 4 4 5 5 5 6 6 6 6 7 7 6 6 6 7 7 7 7 7 7 6 6 6 7 6 6 6 7 7 6 6 7 8 8 8 8
17 17 16 14 14 12 10 9 5 3 4 4 5 4 3 3 3 3 4 5 5 5 6 6 5 5 6 6 6 6 6 6 6 6 6 6 6 6 6 7 7 7 7 7 7 8 9 9 9
19 18 16 15 13 12 11 9 5 4 5 5 4 4 3 3 2 2 2 4 4 4 5 5 5 5 5 5 5 4 5 5 5 5 5 5 6 6 6 7 7 7 7 7 8 8 8 8 9
21 19 17 15 14 13 12 11 7 5 6 5 4 4 4 3 3 1 1 2 3 3 4 4 4 4 4 4 3 3 4 4 5 5 5 5 6 6 6 7 7 7 8 8 8 8 8 9 9
22 21 20 19 18 15 14 11 8 8 8 7 6 5 3 3 3 2 1 1 2 2 3 3 3 3 4 3 3 3 3 4 4 5 5 5 5 6 6 7 7 8 9 9 9 8 9 9 10
24 23 22 21 20 18 16 13 11 9 10 8 5 4 4 3 4 4 4 2 2 2 3 3 3 3 3 3 3 2 3 3 5 5 5 5 6 6 7 7 8 9 9 9 9 9 10 10 11
26 25 24 24 22 21 19 17 14 11 10 9 8 6 6 5 5 6 5 5 4 4 3 3 3 3 3 3 3 3 3 3 4 5 5 6 6 7 7 7 8 9 9 10 10 10 11 11 12
Wind_Direction
71 65 58 52 51 52 55 53 49 50 47 51 51 52 55 58 57 57 60 66 76 80 86 89 92 94 106 117 124 118 118 122 122 131 133 132 134 136 139 141 146 146 147 150 151 152 153 152 153
65 61 53 50 50 50 53 50 51 51 49 50 49 50 54 56 58 62 66 70 77 83 85 84 94 99 106 113 115 117 114 118 119 121 128 135 139 137 138 137 142 145 146 146 149 152 155 158 158
63 56 51 49 49 47 49 49 47 49 51 53 50 53 53 56 63 68 67 71 79 84 86 87 92 106 109 112 118 118 118 120 121 124 124 131 138 142 140 140 140 143 145 146 147 152 158 161 161
62 53 51 48 48 51 47 46 47 50 53 58 56 54 56 59 64 65 69 74 77 80 87 92 94 103 106 109 116 116 117 120 121 123 127 134 138 141 142 140 139 140 141 142 148 152 162 168 163
53 52 52 46 45 48 49 49 48 52 53 57 58 55 60 65 67 72 75 78 80 83 86 91 92 94 99 104 111 115 116 115 120 125 131 136 137 140 141 138 134 133 131 136 132 136 146 158 161
57 55 50 44 42 45 48 50 50 52 52 55 61 61 64 69 71 72 73 78 79 82 84 88 92 88 90 98 104 110 111 111 118 123 128 132 137 140 137 139 134 135 131 135 127 125 136 151 155
54 53 49 43 42 47 49 51 53 53 53 57 63 64 64 67 72 73 76 80 82 82 84 87 88 88 87 94 98 100 107 109 116 123 127 128 125 130 133 135 136 141 138 135 133 135 139 145 155
57 52 48 41 43 48 50 52 56 57 53 55 60 63 65 68 71 76 77 80 81 84 86 87 86 85 83 84 88 93 105 108 113 118 122 124 121 123 129 132 141 145 146 141 141 138 138 142 150
58 51 46 40 43 48 50 53 57 58 56 54 56 60 63 68 72 77 80 80 79 82 85 85 83 82 82 82 85 89 94 100 106 112 118 119 118 116 120 127 133 142 145 143 141 136 140 145 156
60 54 47 43 44 47 52 55 54 56 57 55 55 58 62 67 70 75 78 79 79 80 83 83 82 80 82 82 81 84 86 91 96 104 109 111 115 115 112 118 124 126 132 129 130 133 139 143 159
65 58 51 51 50 52 56 56 54 54 55 55 54 56 62 67 69 73 76 76 80 81 82 83 83 83 83 82 82 83 86 90 95 100 100 102 108 108 107 109 111 110 114 119 117 118 120 135 159
66 63 58 58 55 54 55 54 52 52 51 54 56 56 57 62 67 71 76 76 78 80 81 84 83 84 82 81 84 85 86 89 93 97 101 101 103 103 103 110 110 109 104 103 108 108 114 133 154
64 67 66 64 61 58 55 53 51 51 49 51 55 56 56 60 63 67 69 71 73 78 81 84 86 84 82 82 83 86 87 89 92 95 95 97 100 98 98 98 96 96 96 91 79 84 92 94 74
71 69 74 67 62 60 57 55 53 50 50 50 52 53 56 59 61 64 67 70 69 71 76 79 82 82 81 82 82 83 85 87 92 94 96 99 96 96 92 94 92 91 87 82 71 62 56 64 57
77 74 74 69 61 59 58 54 50 48 48 50 51 53 56 58 59 61 64 66 67 70 72 77 78 79 79 77 76 79 82 85 90 92 92 91 86 89 91 89 87 89 86 83 79 73 58 53 35
95 89 75 72 59 52 49 46 48 49 48 50 51 51 53 56 57 59 60 63 66 69 69 74 76 76 77 74 75 75 78 81 84 84 82 79 79 84 85 82 83 83 84 74 63 50 40 34 27
111 100 89 80 58 43 37 37 42 48 47 48 50 51 53 54 55 57 61 62 64 65 64 67 71 75 73 70 71 70 72 75 77 77 78 81 84 85 81 74 77 78 75 59 38 31 23 20 17
117 102 92 80 57 42 35 34 35 42 45 45 45 48 52 54 54 54 58 60 61 61 61 65 67 69 69 66 67 66 71 74 74 74 77 83 87 85 79 74 69 73 73 61 50 45 38 29 21
158 115 81 73 63 44 31 22 24 40 47 45 43 45 48 53 55 53 55 58 59 60 61 64 65 65 65 67 68 70 73 71 72 74 75 82 85 82 76 71 69 63 58 50 42 44 41 32 25
179 163 124 27 24 5 3 4 10 25 40 49 47 45 46 50 57 55 54 56 56 55 59 62 64 64 65 67 68 71 70 69 71 72 75 83 83 77 70 72 66 58 50 45 40 35 34 27 20
190 200 224 279 295 313 325 334 348 5 28 40 46 47 49 48 51 51 50 52 52 51 55 58 61 63 65 68 69 68 67 67 70 74 76 82 82 74 67 63 57 52 45 39 34 29 23 15 9
207 211 222 252 266 273 293 310 331 358 7 18 33 44 47 51 50 44 43 46 47 48 50 54 60 64 65 67 69 70 69 69 72 71 69 74 75 71 66 60 52 45 36 29 25 20 10 4 358
214 214 222 235 249 251 269 283 307 337 353 9 18 34 44 50 51 44 43 47 47 46 48 54 60 66 67 68 70 70 71 72 71 70 69 69 66 65 62 54 43 32 24 17 14 12 5 358 354
217 215 220 228 235 243 253 264 280 319 333 355 358 10 24 38 45 42 44 48 50 48 47 50 57 63 67 69 69 69 70 68 63 63 61 59 57 53 43 32 26 22 16 14 15 12 5 0 357
218 217 222 228 235 242 246 250 257 285 306 329 339 341 0 6 23 35 47 48 48 50 48 47 47 47 58 63 65 66 66 63 60 58 55 49 42 36 27 18 16 14 14 16 15 11 8 5 2
218 219 225 230 234 234 235 239 240 256 286 297 312 314 318 338 344 356 49 51 43 42 42 44 44 42 47 51 55 58 58 55 51 49 45 37 31 26 20 15 12 11 12 9 5 4 4 3 0
218 223 228 233 232 234 235 242 243 253 272 281 284 298 298 304 315 322 19 35 25 28 29 35 33 31 30 34 42 51 53 53 48 41 35 30 27 21 15 10 7 7 5 2 358 359 1 359 355
218 222 225 229 232 236 239 241 252 269 267 271 276 289 285 299 298 281 287 336 7 10 8 16 17 15 18 19 25 37 48 43 33 26 24 22 17 8 2 2 2 360 356 355 354 352 351 349 348
219 221 224 228 231 236 241 241 245 255 265 261 261 269 267 284 292 296 275 282 314 336 333 343 354 3 4 7 5 8 18 20 21 17 12 8 0 353 351 353 353 351 349 346 347 346 344 342 340
221 225 227 231 234 237 241 239 242 249 260 256 258 261 262 268 281 288 289 284 298 300 302 310 322 346 355 348 346 341 339 348 357 2 359 353 349 346 343 342 343 344 345 343 342 339 336 335 335
Height
5888 5887 5887 5887 5886 5884 5881 5881 5880 5879 5878 5877 5875 5875 5874 5873 5873 5874 5872 5869 5869 5868 5868 5868 5868 5868 5868 5869 5869 5870 5871 5872 5872 5873 5874 5874 5875 5876 5876 5877 5878 5879 5879 5879 5880 5881 5881 5882 5883
5891 5890 5890 5889 5886 5885 5884 5883 5882 5881 5880 5878 5877 5876 5875 5874 5874 5872 5871 5871 5870 5870 5870 5869 5869 5869 5870 5870 5871 5871 5872 5873 5873 5874 5874 5875 5875 5876 5877 5878 5878 5879 5879 5880 5880 5881 5882 5882 5883
5893 5892 5892 5890 5887 5886 5886 5884 5883 5882 5880 5880 5879 5878 5877 5876 5874 5873 5873 5872 5871 5871 5871 5871 5871 5870 5871 5872 5872 5872 5873 5873 5874 5874 5875 5875 5876 5877 5878 5878 5879 5879 5880 5880 5881 5881 5881 5882 5884
5895 5894 5893 5891 5889 5888 5887 5886 5885 5884 5882 5882 5881 5880 5879 5877 5875 5875 5874 5873 5873 5873 5873 5873 5872 5872 5873 5873 5873 5874 5874 5874 5875 5875 5876 5876 5877 5878 5878 5879 5880 5880 5881 5881 5881 5881 5880 5882 5884
5897 5895 5894 5892 5891 5890 5889 5888 5887 5886 5885 5884 5883 5882 5881 5879 5878 5877 5876 5875 5875 5874 5874 5874 5874 5874 5874 5874 5874 5875 5875 5875 5876 5876 5877 5877 5878 5879 5880 5880 5881 5881 5881 5882 5881 5880 5879 5880 5883
5899 5897 5896 5894 5893 5892 5892 5891 5890 5889 5887 5886 5885 5884 5882 5881 5880 5879 5878 5877 5877 5876 5876 5876 5876 5876 5876 5876 5876 5876 5876 5876 5876 5877 5878 5878 5879 5880 5880 5881 5881 5882 5882 5883 5882 5881 5881 5882 5884
5902 5900 5898 5897 5896 5896 5895 5893 5892 5891 5889 5888 5887 5886 5884 5883 5882 5881 5880 5879 5879 5879 5878 5878 5878 5878 5878 5878 5877 5877 5877 5876 5877 5877 5878 5879 5880 5880 5881 5882 5882 5883 5883 5884 5883 5883 5883 5884 5885
5903 5902 5900 5900 5899 5899 5897 5896 5895 5893 5892 5891 5889 5888 5887 5886 5884 5883 5882 5882 5881 5881 5880 5880 5880 5880 5880 5879 5879 5878 5878 5877 5877 5877 5879 5880 5881 5881 5882 5883 5883 5884 5884 5885 5885 5884 5885 5885 5886
5904 5905 5903 5903 5902 5901 5900 5899 5897 5895 5894 5893 5891 5891 5889 5888 5887 5886 5885 5884 5883 5883 5882 5882 5882 5882 5881 5881 5881 5880 5879 5878 5878 5878 5879 5881 5882 5883 5883 5884 5884 5885 5885 5885 5885 5886 5886 5886 5886
5906 5906 5906 5905 5904 5903 5902 5901 5899 5897 5896 5895 5893 5892 5891 5890 5889 5888 5887 5886 5885 5885 5884 5884 5884 5884 5883 5883 5883 5882 5881 5880 5880 5880 5881 5882 5883 5884 5884 5885 5885 5885 5886 5886 5886 5886 5886 5887 5887
5908 5908 5908 5907 5906 5906 5905 5903 5902 5900 5899 5897 5896 5895 5893 5892 5891 5890 5889 5888 5888 5887 5886 5886 5886 5886 5885 5885 5885 5885 5884 5884 5883 5883 5884 5884 5884 5885 5885 5886 5886 5886 5887 5887 5887 5887 5887 5887 5887
5910 5910 5910 5909 5909 5908 5907 5906 5904 5903 5902 5900 5898 5897 5895 5894 5893 5892 5891 5890 5889 5889 5889 5888 5888 5888 5887 5887 5887 5887 5886 5886 5886 5886 5886 5887 5886 5887 5887 5887 5887 5887 5887 5887 5887 5887 5887 5887 5887
5913 5913 5912 5911 5911 5910 5909 5908 5907 5905 5903 5902 5901 5900 5898 5896 5895 5894 5893 5892 5891 5891 5890 5890 5890 5890 5890 5889 5889 5888 5888 5888 5888 5888 5888 5888 5888 5888 5888 5888 5888 5888 5888 5888 5888 5887 5887 5887 5887
5914 5914 5913 5913 5913 5911 5911 5910 5909 5907 5906 5905 5903 5902 5900 5899 5898 5897 5896 5894 5894 5893 5892 5892 5892 5892 5891 5891 5891 5891 5890 5890 5890 5890 5890 5890 5890 5889 5889 5889 5889 5889 5888 5888 5888 5888 5887 5887 5887
5915 5915 5915 5915 5914 5913 5913 5912 5911 5910 5908 5907 5906 5905 5903 5901 5900 5899 5898 5897 5896 5895 5894 5894 5894 5893 5893 5892 5892 5892 5892 5891 5891 5891 5891 5891 5891 5890 5890 5890 5890 5889 5889 5889 5889 5888 5888 5887 5887
5916 5917 5917 5916 5916 5915 5916 5914 5913 5911 5911 5909 5908 5907 5905 5904 5902 5901 5900 5899 5898 5897 5896 5896 5895 5895 5894 5894 5894 5893 5893 5893 5892 5892 5892 5892 5891 5891 5891 5891 5890 5890 5890 5889 5889 5888 5888 5887 5887
5916 5917 5917 5917 5917 5916 5916 5915 5915 5913 5913 5911 5910 5908 5907 5906 5904 5903 5902 5901 5900 5899 5898 5897 5897 5896 5896 5896 5895 5895 5894 5894 5893 5893 5893 5893 5892 5892 5892 5891 5891 5891 5890 5889 5889 5888 5888 5887 5886
5917 5917 5918 5918 5917 5917 5917 5916 5916 5915 5914 5913 5912 5910 5909 5908 5906 5905 5904 5903 5902 5901 5900 5899 5899 5898 5897 5897 5896 5895 5895 5895 5894 5894 5894 5893 5893 5893 5893 5892 5892 5891 5890 5890 5889 5889 5888 5887 5886
5916 5917 5918 5918 5917 5917 5917 5917 5917 5916 5915 5914 5913 5912 5910 5909 5908 5907 5905 5904 5904 5903 5902 5901 5900 5899 5899 5898 5897 5897 5896 5896 5896 5895 5895 5894 5894 5894 5893 5893 5892 5892 5891 5890 5890 5889 5888 5887 5886
5915 5916 5917 5917 5917 5917 5917 5917 5917 5917 5916 5915 5914 5913 5912 5911 5910 5909 5907 5906 5905 5904 5903 5903 5902 5901 5900 5899 5898 5898 5898 5897 5897 5896 5895 5895 5895 5894 5894 5893 5893 5892 5892 5891 5890 5889 5888 5887 5887
5914 5915 5916 5917 5917 5917 5917 5917 5917 5917 5916 5915 5914 5913 5912 5912 5911 5910 5909 5908 5907 5906 5905 5904 5903 5902 5901 5900 5900 5899 5899 5898 5898 5897 5897 5896 5895 5895 5894 5894 5893 5893 5892 5891 5890 5889 5888 5887 5886
5912 5914 5915 5915 5915 5916 5917 5916 5917 5916 5916 5915 5914 5913 5913 5912 5912 5911 5910 5909 5908 5907 5906 5905 5904 5903 5902 5902 5901 5901 5900 5900 5899 5898 5898 5897 5896 5896 5895 5894 5894 5893 5892 5891 5890 5889 5888 5887 5885
5910 5912 5913 5914 5914 5915 5915 5915 5916 5915 5915 5915 5914 5914 5913 5912 5912 5912 5911 5910 5909 5907 5906 5906 5905 5904 5903 5903 5902 5902 5901 5901 5900 5899 5898 5898 5897 5896 5895 5895 5894 5893 5892 5891 5889 5888 5887 5886 5884
5908 5910 5911 5912 5913 5914 5914 5914 5914 5914 5914 5914 5914 5913 5913 5912 5912 5912 5911 5910 5910 5909 5907 5907 5906 5905 5904 5904 5903 5902 5902 5901 5900 5900 5899 5898 5897 5897 5896 5895 5894 5892 5891 5890 5889 5888 5886 5885 5883
5905 5908 5909 5909 5910 5912 5913 5912 5913 5914 5913 5913 5913 5913 5912 5912 5912 5912 5911 5911 5910 5909 5908 5907 5907 5906 5905 5904 5904 5903 5902 5902 5901 5900 5899 5898 5898 5897 5896 5895 5894 5892 5891 5890 5888 5887 5886 5884 5882
5901 5904 5906 5907 5908 5909 5910 5909 5911 5912 5912 5912 5912 5912 5912 5911 5911 5911 5911 5911 5910 5910 5909 5908 5907 5906 5906 5905 5904 5903 5903 5902 5901 5900 5899 5899 5898 5897 5895 5894 5893 5892 5890 5889 5888 5886 5885 5883 5881
5898 5900 5903 5904 5905 5905 5906 5907 5908 5908 5909 5910 5910 5910 5911 5910 5910 5910 5910 5910 5910 5910 5909 5908 5907 5907 5906 5905 5904 5903 5903 5902 5901 5900 5899 5898 5897 5896 5895 5894 5893 5891 5890 5888 5887 5885 5884 5882 5880
5894 5897 5899 5900 5901 5902 5903 5904 5906 5906 5907 5908 5909 5908 5909 5909 5909 5910 5910 5909 5909 5909 5909 5908 5907 5907 5906 5905 5904 5903 5903 5902 5901 5900 5899 5898 5897 5896 5895 5894 5892 5891 5889 5888 5886 5884 5883 5881 5879
5890 5892 5894 5896 5898 5899 5900 5903 5904 5904 5905 5906 5906 5907 5907 5907 5908 5908 5908 5908 5908 5908 5908 5907 5907 5906 5905 5905 5904 5903 5902 5901 5900 5899 5898 5897 5896 5895 5894 5893 5892 5890 5888 5886 5885 5883 5881 5879 5877
5884 5887 5889 5892 5894 5895 5896 5901 5901 5901 5902 5903 5904 5905 5906 5906 5906 5906 5906 5906 5906 5906 5906 5906 5905 5905 5904 5904 5903 5902 5902 5901 5900 5899 5897 5896 5895 5894 5893 5892 5890 5889 5887 5885 5883 5881 5879 5877 5875